6hr Temperature Data

Temp.
(°C)
Wind Chill
(°C)
Dew Point
(°C)
Solar Hours
(hh:mm)
Solar Radiation
(w/m2)
Min
17.6 17.4 -110.2 00:00 0.0
Max
22.8 23.8 -109.7 00:00 0.0
Range
5.2 6.4 0.5 n/a 0
Mode
21.8 21.1 -110.1 00:00 0.0
Median
20.4 21.1 -110 00:00 0.0
Mean
20.5 21 -110 n/a 0
Std. Dev
1.6 1.8 5.8 n/a 0
Temp.
(°C)
Wind Chill
(°C)
Dew Point
(°C)
Solar Hours
(hh:mm)
Solar Radiation
(w/m2)
14/08 15:11 22.2 23.1 -109.8 00:00 0.0
14/08 15:10 22.4 23.4 -109.8 00:00 0.0
14/08 15:09 22.4 23.4 -109.8 00:00 0.0
14/08 15:08 22.4 23.3 -109.8 00:00 0.0
14/08 15:06 22.6 23.6 -109.7 00:00 0.0
14/08 15:05 22.6 23.6 -109.7 00:00 0.0
14/08 15:04 22.6 23.6 -109.7 00:00 0.0
14/08 15:03 22.6 23.6 -109.7 00:00 0.0
14/08 15:02 22.6 23.6 -109.7 00:00 0.0
14/08 15:00 22.8 23.8 -109.7 00:00 0.0
14/08 14:58 22.6 23.6 -109.7 00:00 0.0
14/08 14:57 22.4 23.3 -109.8 00:00 0.0
14/08 14:56 22.2 23.1 -109.8 00:00 0.0
14/08 14:55 22.2 23.1 -109.8 00:00 0.0
14/08 14:54 22.0 22.8 -109.8 00:00 0.0
14/08 14:53 22.2 23.1 -109.8 00:00 0.0
14/08 14:52 22.2 23.1 -109.8 00:00 0.0
14/08 14:51 22.2 23.1 -109.8 00:00 0.0
14/08 14:50 22.4 23.3 -109.8 00:00 0.0
14/08 14:48 22.6 23.6 -109.7 00:00 0.0
14/08 14:47 22.6 23.6 -109.7 00:00 0.0
14/08 14:46 22.2 23.1 -109.8 00:00 0.0
14/08 14:45 22.0 22.8 -109.8 00:00 0.0
14/08 14:44 21.8 22.6 -109.8 00:00 0.0
14/08 14:43 22.0 22.8 -109.8 00:00 0.0
14/08 14:42 22.0 22.8 -109.8 00:00 0.0
14/08 14:40 21.8 22.6 -109.8 00:00 0.0
14/08 14:39 21.8 22.6 -109.8 00:00 0.0
14/08 14:38 21.8 22.6 -109.8 00:00 0.0
14/08 14:37 21.8 22.6 -109.8 00:00 0.0
14/08 14:36 21.6 22.4 -109.8 00:00 0.0
14/08 14:35 21.6 22.4 -109.8 00:00 0.0
14/08 14:34 21.8 22.7 -109.8 00:00 0.0
14/08 14:32 21.6 22.5 -109.8 00:00 0.0
14/08 14:31 21.8 22.7 -109.8 00:00 0.0
14/08 14:30 21.8 22.7 -109.8 00:00 0.0
14/08 14:28 21.8 22.7 -109.8 00:00 0.0
14/08 14:26 21.6 22.4 -109.8 00:00 0.0
14/08 14:25 21.4 22.1 -109.9 00:00 0.0
14/08 14:24 21.4 22.1 -109.9 00:00 0.0
14/08 14:23 21.2 21.9 -109.9 00:00 0.0
14/08 14:22 21.2 21.9 -109.9 00:00 0.0
14/08 14:21 21.2 21.9 -109.9 00:00 0.0
14/08 14:20 21.2 21.9 -109.9 00:00 0.0
14/08 14:19 21.2 21.9 -109.9 00:00 0.0
14/08 14:18 21.4 22.1 -109.9 00:00 0.0
14/08 14:17 21.4 22.1 -109.9 00:00 0.0
14/08 14:16 21.6 22.4 -109.8 00:00 0.0
14/08 14:15 21.4 22.2 -109.9 00:00 0.0
14/08 14:14 21.2 22 -109.9 00:00 0.0
14/08 14:13 21.2 22 -109.9 00:00 0.0
14/08 14:12 21.4 22.2 -109.9 00:00 0.0
14/08 14:11 21.6 22.5 -109.8 00:00 0.0
14/08 14:10 21.8 22.7 -109.8 00:00 0.0
14/08 14:09 21.8 22.7 -109.8 00:00 0.0
14/08 14:08 21.8 22.7 -109.8 00:00 0.0
14/08 14:07 22.0 23 -109.8 00:00 0.0
14/08 14:06 21.8 22.7 -109.8 00:00 0.0
14/08 14:05 21.8 22.7 -109.8 00:00 0.0
14/08 14:04 21.8 22.7 -109.8 00:00 0.0
14/08 14:02 21.8 22.7 -109.8 00:00 0.0
14/08 14:01 21.8 22.7 -109.8 00:00 0.0
14/08 14:00 22.0 22.9 -109.8 00:00 0.0
14/08 13:59 22.0 22.9 -109.8 00:00 0.0
14/08 13:58 22.0 23 -109.8 00:00 0.0
14/08 13:57 22.0 23 -109.8 00:00 0.0
14/08 13:56 22.0 23 -109.8 00:00 0.0
14/08 13:55 22.0 22.9 -109.8 00:00 0.0
14/08 13:54 22.0 22.9 -109.8 00:00 0.0
14/08 13:53 22.2 23.1 -109.8 00:00 0.0
14/08 13:52 22.0 22.9 -109.8 00:00 0.0
14/08 13:51 22.0 22.9 -109.8 00:00 0.0
14/08 13:50 21.8 22.6 -109.8 00:00 0.0
14/08 13:49 21.6 22.4 -109.8 00:00 0.0
14/08 13:48 21.4 22.1 -109.9 00:00 0.0
14/08 13:46 21.2 21.9 -109.9 00:00 0.0
14/08 13:44 21.2 21.9 -109.9 00:00 0.0
14/08 13:43 21.4 22.2 -109.9 00:00 0.0
14/08 13:42 21.6 22.4 -109.8 00:00 0.0
14/08 13:41 21.8 22.7 -109.8 00:00 0.0
14/08 13:40 21.8 22.7 -109.8 00:00 0.0
14/08 13:38 21.8 22.7 -109.8 00:00 0.0
14/08 13:37 21.8 22.7 -109.8 00:00 0.0
14/08 13:36 21.8 22.6 -109.8 00:00 0.0
14/08 13:35 21.8 22.6 -109.8 00:00 0.0
14/08 13:34 21.6 22.4 -109.8 00:00 0.0
14/08 13:32 21.6 22.4 -109.8 00:00 0.0
14/08 13:30 21.8 22.7 -109.8 00:00 0.0
14/08 13:29 21.8 22.8 -109.8 00:00 0.0
14/08 13:28 21.8 22.8 -109.8 00:00 0.0
14/08 13:27 21.8 22.8 -109.8 00:00 0.0
14/08 13:26 21.8 22.8 -109.8 00:00 0.0
14/08 13:25 21.8 22.8 -109.8 00:00 0.0
14/08 13:24 21.8 22.8 -109.8 00:00 0.0
14/08 13:23 21.8 22.8 -109.8 00:00 0.0
14/08 13:22 21.8 22.8 -109.8 00:00 0.0
14/08 13:21 21.6 22.5 -109.8 00:00 0.0
14/08 13:20 21.6 22.5 -109.8 00:00 0.0
14/08 13:19 21.8 22.8 -109.8 00:00 0.0
14/08 13:18 22.0 23 -109.8 00:00 0.0
14/08 13:16 21.8 22.8 -109.8 00:00 0.0
14/08 13:14 22.0 23 -109.8 00:00 0.0
14/08 13:13 22.0 23 -109.8 00:00 0.0
14/08 13:12 22.0 23.1 -109.8 00:00 0.0
14/08 13:11 22.0 23.1 -109.8 00:00 0.0
14/08 13:10 21.8 22.8 -109.8 00:00 0.0
14/08 13:09 21.8 22.8 -109.8 00:00 0.0
14/08 13:08 21.8 22.7 -109.8 00:00 0.0
14/08 13:07 21.8 22.7 -109.8 00:00 0.0
14/08 13:06 21.6 22.5 -109.8 00:00 0.0
14/08 13:04 21.4 22.2 -109.9 00:00 0.0
14/08 13:03 21.2 21.9 -109.9 00:00 0.0
14/08 13:02 21.0 21.6 -109.9 00:00 0.0
14/08 13:00 20.8 21.4 -109.9 00:00 0.0
14/08 12:58 21.0 21.6 -109.9 00:00 0.0
14/08 12:57 21.0 21.7 -109.9 00:00 0.0
14/08 12:56 21.0 21.7 -109.9 00:00 0.0
14/08 12:55 21.2 21.9 -109.9 00:00 0.0
14/08 12:54 21.4 22.2 -109.9 00:00 0.0
14/08 12:53 21.4 22.2 -109.9 00:00 0.0
14/08 12:52 21.6 22.5 -109.8 00:00 0.0
14/08 12:50 21.4 22.2 -109.9 00:00 0.0
14/08 12:49 21.2 21.9 -109.9 00:00 0.0
14/08 12:48 21.2 21.8 -109.9 00:00 0.0
14/08 12:47 21.2 21.9 -109.9 00:00 0.0
14/08 12:46 21.0 21.6 -109.9 00:00 0.0
14/08 12:45 21.2 21.8 -109.9 00:00 0.0
14/08 12:44 21.2 21.8 -109.9 00:00 0.0
14/08 12:43 21.2 21.9 -109.9 00:00 0.0
14/08 12:41 20.8 21.3 -109.9 00:00 0.0
14/08 12:39 21.2 21.9 -109.9 00:00 0.0
14/08 12:38 21.0 21.6 -109.9 00:00 0.0
14/08 12:37 20.8 21.4 -109.9 00:00 0.0
14/08 12:36 20.8 21.4 -109.9 00:00 0.0
14/08 12:35 20.6 21.1 -109.9 00:00 0.0
14/08 12:33 20.4 20.8 -110 00:00 0.0
14/08 12:31 20.6 21.1 -109.9 00:00 0.0
14/08 12:29 20.4 20.8 -110 00:00 0.0
14/08 12:28 20.4 20.8 -110 00:00 0.0
14/08 12:27 20.6 21.1 -109.9 00:00 0.0
14/08 12:26 20.6 21.1 -109.9 00:00 0.0
14/08 12:25 20.6 21.1 -109.9 00:00 0.0
14/08 12:24 20.6 21.1 -109.9 00:00 0.0
14/08 12:23 20.6 21.1 -109.9 00:00 0.0
14/08 12:22 20.6 21.1 -109.9 00:00 0.0
14/08 12:21 20.6 21.1 -109.9 00:00 0.0
14/08 12:20 20.6 21.1 -109.9 00:00 0.0
14/08 12:19 20.4 20.9 -110 00:00 0.0
14/08 12:18 20.4 20.9 -110 00:00 0.0
14/08 12:17 20.6 21.2 -109.9 00:00 0.0
14/08 12:15 20.6 21.1 -109.9 00:00 0.0
14/08 12:14 20.6 21.1 -109.9 00:00 0.0
14/08 12:13 20.4 20.8 -110 00:00 0.0
14/08 12:12 20.6 21.1 -109.9 00:00 0.0
14/08 12:11 20.4 20.9 -110 00:00 0.0
14/08 12:10 20.4 20.9 -110 00:00 0.0
14/08 12:09 20.2 20.6 -110 00:00 0.0
14/08 12:08 20.2 20.6 -110 00:00 0.0
14/08 12:07 20.2 20.6 -110 00:00 0.0
14/08 12:06 20.2 20.6 -110 00:00 0.0
14/08 12:05 20.2 20.5 -110 00:00 0.0
14/08 12:04 20.2 20.6 -110 00:00 0.0
14/08 12:02 20.2 20.5 -110 00:00 0.0
14/08 12:00 20.2 20.5 -110 00:00 0.0
14/08 11:58 20.4 20.8 -110 00:00 0.0
14/08 11:57 20.4 20.8 -110 00:00 0.0
14/08 11:56 20.4 20.8 -110 00:00 0.0
14/08 11:55 20.6 21.1 -109.9 00:00 0.0
14/08 11:54 20.6 21.1 -109.9 00:00 0.0
14/08 11:53 20.6 21.1 -109.9 00:00 0.0
14/08 11:52 20.6 21.1 -109.9 00:00 0.0
14/08 11:50 20.8 21.4 -109.9 00:00 0.0
14/08 11:48 20.8 21.5 -109.9 00:00 0.0
14/08 11:47 21.0 21.7 -109.9 00:00 0.0
14/08 11:46 21.0 21.7 -109.9 00:00 0.0
14/08 11:45 20.8 21.5 -109.9 00:00 0.0
14/08 11:44 20.8 21.5 -109.9 00:00 0.0
14/08 11:43 20.6 21.3 -109.9 00:00 0.0
14/08 11:42 20.4 21.1 -110 00:00 0.0
14/08 11:40 20.4 21.1 -110 00:00 0.0
14/08 11:39 20.4 21.1 -110 00:00 0.0
14/08 11:38 20.6 21.3 -109.9 00:00 0.0
14/08 11:37 20.4 21.1 -110 00:00 0.0
14/08 11:36 20.6 21.3 -109.9 00:00 0.0
14/08 11:34 20.4 21.1 -110 00:00 0.0
14/08 11:33 20.4 21 -110 00:00 0.0
14/08 11:32 20.4 21 -110 00:00 0.0
14/08 11:31 20.4 21 -110 00:00 0.0
14/08 11:30 20.4 21 -110 00:00 0.0
14/08 11:29 20.4 21 -110 00:00 0.0
14/08 11:28 20.2 20.7 -110 00:00 0.0
14/08 11:27 20.2 20.7 -110 00:00 0.0
14/08 11:26 20.2 20.7 -110 00:00 0.0
14/08 11:25 20.2 20.7 -110 00:00 0.0
14/08 11:24 20.4 21 -110 00:00 0.0
14/08 11:23 20.4 21 -110 00:00 0.0
14/08 11:22 20.4 21 -110 00:00 0.0
14/08 11:21 20.4 21 -110 00:00 0.0
14/08 11:20 20.2 20.8 -110 00:00 0.0
14/08 11:19 20.4 21 -110 00:00 0.0
14/08 11:18 20.4 21 -110 00:00 0.0
14/08 11:17 20.4 21 -110 00:00 0.0
14/08 11:16 20.4 20.9 -110 00:00 0.0
14/08 11:15 20.6 21.2 -109.9 00:00 0.0
14/08 11:14 20.6 21.1 -109.9 00:00 0.0
14/08 11:13 20.6 21.1 -109.9 00:00 0.0
14/08 11:12 20.4 20.8 -110 00:00 0.0
14/08 11:10 20.6 21 -109.9 00:00 0.0
14/08 11:09 20.6 21.1 -109.9 00:00 0.0
14/08 11:08 20.6 21.1 -109.9 00:00 0.0
14/08 11:07 20.6 21.1 -109.9 00:00 0.0
14/08 11:06 20.8 21.4 -109.9 00:00 0.0
14/08 11:05 20.6 21.1 -109.9 00:00 0.0
14/08 11:04 20.4 20.9 -110 00:00 0.0
14/08 11:03 20.4 20.9 -110 00:00 0.0
14/08 11:02 20.6 21.2 -109.9 00:00 0.0
14/08 11:00 20.4 21 -110 00:00 0.0
14/08 10:59 20.2 20.7 -110 00:00 0.0
14/08 10:58 20.2 20.8 -110 00:00 0.0
14/08 10:57 20.0 20.6 -110 00:00 0.0
14/08 10:56 20.2 20.8 -110 00:00 0.0
14/08 10:55 20.2 20.9 -110 00:00 0.0
14/08 10:54 20.4 21.2 -110 00:00 0.0
14/08 10:52 20.2 21 -110 00:00 0.0
14/08 10:50 20.2 21.1 -110 00:00 0.0
14/08 10:49 20.2 21.1 -110 00:00 0.0
14/08 10:48 20.4 21.3 -110 00:00 0.0
14/08 10:47 20.6 21.6 -109.9 00:00 0.0
14/08 10:46 20.8 21.8 -109.9 00:00 0.0
14/08 10:45 20.8 21.8 -109.9 00:00 0.0
14/08 10:44 20.6 21.6 -109.9 00:00 0.0
14/08 10:43 20.6 21.5 -109.9 00:00 0.0
14/08 10:42 20.6 21.5 -109.9 00:00 0.0
14/08 10:41 20.6 21.5 -109.9 00:00 0.0
14/08 10:40 20.6 21.4 -109.9 00:00 0.0
14/08 10:39 20.4 21.2 -110 00:00 0.0
14/08 10:38 20.4 21.2 -110 00:00 0.0
14/08 10:36 20.0 20.7 -110 00:00 0.0
14/08 10:35 20.2 20.9 -110 00:00 0.0
14/08 10:34 20.2 20.9 -110 00:00 0.0
14/08 10:33 20.0 20.6 -110 00:00 0.0
14/08 10:32 20.0 20.6 -110 00:00 0.0
14/08 10:31 20.0 20.6 -110 00:00 0.0
14/08 10:30 20.0 20.6 -110 00:00 0.0
14/08 10:29 19.8 20.4 -110 00:00 0.0
14/08 10:28 19.8 20.4 -110 00:00 0.0
14/08 10:27 19.8 20.4 -110 00:00 0.0
14/08 10:26 19.8 20.4 -110 00:00 0.0
14/08 10:25 19.8 20.4 -110 00:00 0.0
14/08 10:24 19.8 20.5 -110 00:00 0.0
14/08 10:23 19.8 20.5 -110 00:00 0.0
14/08 10:22 19.6 20.2 -110 00:00 0.0
14/08 10:21 19.6 20.2 -110 00:00 0.0
14/08 10:20 19.6 20.1 -110 00:00 0.0
14/08 10:19 19.6 20.1 -110 00:00 0.0
14/08 10:18 19.4 19.8 -110.1 00:00 0.0
14/08 10:17 19.4 19.7 -110.1 00:00 0.0
14/08 10:16 19.4 19.7 -110.1 00:00 0.0
14/08 10:15 19.2 19.4 -110.1 00:00 0.0
14/08 10:14 19.2 19.4 -110.1 00:00 0.0
14/08 10:13 19.2 19.3 -110.1 00:00 0.0
14/08 10:12 19.2 19.4 -110.1 00:00 0.0
14/08 10:11 19.2 19.4 -110.1 00:00 0.0
14/08 10:10 19.2 19.5 -110.1 00:00 0.0
14/08 10:09 19.2 19.6 -110.1 00:00 0.0
14/08 10:07 19.4 19.9 -110.1 00:00 0.0
14/08 10:06 19.4 19.9 -110.1 00:00 0.0
14/08 10:05 19.4 19.9 -110.1 00:00 0.0
14/08 10:04 19.6 20.2 -110 00:00 0.0
14/08 10:03 19.6 20.2 -110 00:00 0.0
14/08 10:02 19.6 20.2 -110 00:00 0.0
14/08 10:01 19.4 19.9 -110.1 00:00 0.0
14/08 09:59 19.4 19.8 -110.1 00:00 0.0
14/08 09:58 19.4 19.8 -110.1 00:00 0.0
14/08 09:57 19.4 19.7 -110.1 00:00 0.0
14/08 09:56 19.4 19.7 -110.1 00:00 0.0
14/08 09:55 19.4 19.7 -110.1 00:00 0.0
14/08 09:54 19.2 19.5 -110.1 00:00 0.0
14/08 09:53 19.2 19.5 -110.1 00:00 0.0
14/08 09:51 19.2 19.5 -110.1 00:00 0.0
14/08 09:49 19.2 19.6 -110.1 00:00 0.0
14/08 09:48 19.4 19.9 -110.1 00:00 0.0
14/08 09:47 19.4 20 -110.1 00:00 0.0
14/08 09:46 19.4 20 -110.1 00:00 0.0
14/08 09:45 19.4 20 -110.1 00:00 0.0
14/08 09:44 19.2 19.8 -110.1 00:00 0.0
14/08 09:43 19.2 19.8 -110.1 00:00 0.0
14/08 09:41 19.2 19.7 -110.1 00:00 0.0
14/08 09:39 19.2 19.6 -110.1 00:00 0.0
14/08 09:38 19.2 19.5 -110.1 00:00 0.0
14/08 09:37 19.2 19.5 -110.1 00:00 0.0
14/08 09:35 19.0 19.2 -110.1 00:00 0.0
14/08 09:34 19.0 19.2 -110.1 00:00 0.0
14/08 09:33 18.8 18.9 -110.1 00:00 0.0
14/08 09:32 18.8 18.9 -110.1 00:00 0.0
14/08 09:30 18.8 19 -110.1 00:00 0.0
14/08 09:29 18.8 19 -110.1 00:00 0.0
14/08 09:28 18.8 19 -110.1 00:00 0.0
14/08 09:27 19.0 19.2 -110.1 00:00 0.0
14/08 09:25 19.0 19.2 -110.1 00:00 0.0
14/08 09:24 19.0 19.1 -110.1 00:00 0.0
14/08 09:23 19.0 19.1 -110.1 00:00 0.0
14/08 09:22 19.0 19.1 -110.1 00:00 0.0
14/08 09:21 19.0 19.1 -110.1 00:00 0.0
14/08 09:20 18.8 18.8 -110.1 00:00 0.0
14/08 09:19 18.8 18.9 -110.1 00:00 0.0
14/08 09:17 18.8 18.9 -110.1 00:00 0.0
14/08 09:16 18.8 19 -110.1 00:00 0.0
14/08 09:15 19.0 19.2 -110.1 00:00 0.0
14/08 09:14 19.0 19.2 -110.1 00:00 0.0
14/08 09:13 19.0 19.2 -110.1 00:00 0.0
14/08 09:12 19.0 19.2 -110.1 00:00 0.0
14/08 09:11 19.2 19.5 -110.1 00:00 0.0
14/08 09:09 19.2 19.5 -110.1 00:00 0.0
14/08 09:08 19.2 19.4 -110.1 00:00 0.0
14/08 09:07 19.2 19.3 -110.1 00:00 0.0
14/08 09:06 19.2 19.3 -110.1 00:00 0.0
14/08 09:05 19.2 19.3 -110.1 00:00 0.0
14/08 09:03 19.2 19.3 -110.1 00:00 0.0
14/08 09:02 19.2 19.4 -110.1 00:00 0.0
14/08 09:01 19.2 19.4 -110.1 00:00 0.0
14/08 09:00 19.0 19.1 -110.1 00:00 0.0
14/08 08:59 19.0 19.1 -110.1 00:00 0.0
14/08 08:58 19.0 19.2 -110.1 00:00 0.0
14/08 08:57 19.0 19.2 -110.1 00:00 0.0
14/08 08:56 19.0 19.2 -110.1 00:00 0.0
14/08 08:55 19.0 19.3 -110.1 00:00 0.0
14/08 08:54 18.8 19 -110.1 00:00 0.0
14/08 08:53 19.0 19.3 -110.1 00:00 0.0
14/08 08:52 19.0 19.3 -110.1 00:00 0.0
14/08 08:51 18.8 19 -110.1 00:00 0.0
14/08 08:50 18.8 19 -110.1 00:00 0.0
14/08 08:49 18.6 18.8 -110.1 00:00 0.0
14/08 08:48 18.6 18.8 -110.1 00:00 0.0
14/08 08:47 18.6 18.9 -110.1 00:00 0.0
14/08 08:46 18.6 18.8 -110.1 00:00 0.0
14/08 08:45 18.6 18.8 -110.1 00:00 0.0
14/08 08:43 18.4 18.6 -110.2 00:00 0.0
14/08 08:42 18.4 18.6 -110.2 00:00 0.0
14/08 08:40 18.2 18.3 -110.2 00:00 0.0
14/08 08:39 18.0 18 -110.2 00:00 0.0
14/08 08:37 17.8 17.7 -110.2 00:00 0.0
14/08 08:36 17.6 17.5 -110.2 00:00 0.0
14/08 08:35 17.6 17.5 -110.2 00:00 0.0
14/08 08:34 17.6 17.4 -110.2 00:00 0.0
14/08 08:33 17.6 17.4 -110.2 00:00 0.0
14/08 08:32 17.6 17.4 -110.2 00:00 0.0
14/08 08:31 17.8 17.7 -110.2 00:00 0.0
14/08 08:30 18.2 18.2 -110.2 00:00 0.0
14/08 08:29 18.4 18.5 -110.2 00:00 0.0
14/08 08:28 18.8 19 -110.1 00:00 0.0
14/08 08:27 18.8 19 -110.1 00:00 0.0
14/08 08:26 18.8 19 -110.1 00:00 0.0
14/08 08:25 19.0 19.3 -110.1 00:00 0.0
14/08 08:24 19.0 19.3 -110.1 00:00 0.0
14/08 08:23 19.0 19.4 -110.1 00:00 0.0
14/08 08:22 19.2 19.6 -110.1 00:00 0.0
14/08 08:21 19.2 19.7 -110.1 00:00 0.0
14/08 08:20 19.2 19.8 -110.1 00:00 0.0
14/08 08:19 19.2 19.8 -110.1 00:00 0.0
14/08 08:18 19.2 19.8 -110.1 00:00 0.0



    Load Time 0.018935 seconds